Event: Grand Prix du Brésil à São Paulo
Piste: Autodromo Interlagos

Météo: sec 23.9 ° C
Tarmac: humide  42.6 ° C
Humidité: 64%
Vent : 1.7 m/s W
Pression: bar 924

Tableau des temps FP2 2022 GP de Sao Paulo

P Non Tournevis équipe Time Freak 1st Gap Laps Pneus
1 31 Esteban Ocon Alpine 1:14,604 28 S
2 11 Sergio Pérez Red Bull 1:14,788 + 0,184s 36 S
3 63 George Russell Mercedes 1:14,916 + 0,312s 31 S
4 14 Fernando Alonso Alpine 1:15,049 + 0,445s 29 M
5 1 Max Verstappen Red Bull 1:15,098 + 0,494s 30 S
6 44 Lewis Hamilton Mercedes 1:15,137 + 0,533s 33 S
7 10 Pierre Gasly Alpha Tauri 1:15,636 + 1,032s 32 S
8 47 Mick Schumacher Haas 1:15,684 + 1,080s 40 S
9 20 Kevin Magnussen Haas 1:15,815 + 1,211s 38 M
10 4 Lando Norris McLaren 1:15,851 + 1,247s 25 M
11 55 Carlos Sainz Ferrari 1:15,856 + 1,252s 38 S
12 22 Yuki Tsunoda Alpha Tauri 1:15,865 + 1,261s 32 S
13 16 Charles Leclerc Ferrari 1:15,868 + 1,264s 37 S
14 3 Daniel Ricciardo McLaren 1:15,994 + 1,390s 28 S
15 77 Valtteri Bottas Alfa Romeo 1:16,047 + 1,443s 34 S
16 6 Nicholas Latifi Williams 1:16,181 + 1,577s 34 S
17 18 Lance Stroll Aston Martin 1:16,263 + 1,659s 43 S
18 5 Sebastian Vettel Aston Martin 1:16,400 + 1,796s 44 S
19 24 Zhou Guanyu Alfa Romeo 1:16,468 + 1,864s 37 S
20 45 Logan Sargeant Williams 1:16,480 + 1,876s 28 S

✅ N'oubliez pas de consulter notre Aperçu du Grand Prix F2022 de Sao Paulo 1.


✅ Découvrez plus de messages avec des sujets connexes :

Quelle est votre opinion de fan de F1?

Votre adresse email n'apparaitra pas. Les champs obligatoires sont marqués *

S'il vous plaît suivez notre commenter les directives.